This is the latest recevied weather packets stored in our database for station/object KI5RAB. If no packets are shown the sender has not sent any weather packets the latest 10 day(s).
| Time | Temp. | Humidity | Pressure | Rain* | Wind** | Luminosity | Snow |
|---|---|---|---|---|---|---|---|
| 1777579881 | 21.11° C | 82% | 1014 hPa | 0 mm | - | 221 W/m² | - |
| 1777579580 | 21.11° C | 83% | 1014 hPa | 0 mm | - | 230 W/m² | - |
| 1777579275 | 20.56° C | 83% | 1014.1 hPa | 0 mm | - | 273 W/m² | - |
| 1777578970 | 21.11° C | 83% | 1014.3 hPa | 0 mm | - | 166 W/m² | - |
| 1777578666 | 21.11° C | 83% | 1014.2 hPa | 0 mm | - | 154 W/m² | - |
| 1777578364 | 21.11° C | 83% | 1014.4 hPa | 0 mm | - | 121 W/m² | - |
| 1777578061 | 21.11° C | 83% | 1014.4 hPa | 0 mm | - | 114 W/m² | - |
| 1777577756 | 21.11° C | 83% | 1014.4 hPa | 0 mm | - | 118 W/m² | - |
| 1777577453 | 21.11° C | 83% | 1014.5 hPa | 0 mm | - | 121 W/m² | - |
| 1777577150 | 21.11° C | 83% | 1014.3 hPa | 0 mm | - | 121 W/m² | - |
| 1777576846 | 21.11° C | 83% | 1014.4 hPa | 0 mm | - | 103 W/m² | - |
| 1777576545 | 21.11° C | 83% | 1014.4 hPa | 0 mm | - | 210 W/m² | - |
| 1777576242 | 21.11° C | 82% | 1014.2 hPa | 0 mm | - | 169 W/m² | - |
| 1777575938 | 21.11° C | 82% | 1014.5 hPa | 0 mm | - | 129 W/m² | - |
| 1777575634 | 21.67° C | 82% | 1014.5 hPa | 0 mm | - | 123 W/m² | - |
| 1777575330 | 21.67° C | 83% | 1014.6 hPa | 0 mm | - | 102 W/m² | - |
| 1777575026 | 21.67° C | 82% | 1014.7 hPa | 0 mm | - | 145 W/m² | - |
| 1777574722 | 21.67° C | 82% | 1014.6 hPa | 0 mm | - | 159 W/m² | - |
| 1777574420 | 22.22° C | 81% | 1014.5 hPa | 0 mm | - | 197 W/m² | - |
| 1777574115 | 21.67° C | 81% | 1014.3 hPa | 0 mm | - | 245 W/m² | - |
| 1777573811 | 21.67° C | 82% | 1014.4 hPa | 0 mm | - | 300 W/m² | - |
| 1777573506 | 21.67° C | 82% | 1014.3 hPa | 0 mm | - | 269 W/m² | - |
| 1777573203 | 21.67° C | 82% | 1014.4 hPa | 0 mm | - | 270 W/m² | - |
| 1777572899 | 21.67° C | 81% | 1014.5 hPa | 0 mm | - | 236 W/m² | - |
| 1777572595 | 21.67° C | 81% | 1014.6 hPa | 0 mm | - | 199 W/m² | - |
* Rain latest hour (hover to see other rain measurements)
** Current wind speed in m/s (hover to see current wind gust speed)